Year,Month,Day,Hour,Minute,Value (Times are PST for temperature in C)
2015,07,06,00,00,20.40
2015,07,06,00,01,20.40
2015,07,06,00,02,20.30
2015,07,06,00,03,20.30
2015,07,06,00,04,20.30
2015,07,06,00,05,20.30
2015,07,06,00,06,20.30
2015,07,06,00,07,20.30
2015,07,06,00,08,20.30
2015,07,06,00,09,20.20
2015,07,06,00,10,20.20
2015,07,06,00,11,20.20
2015,07,06,00,12,20.20
2015,07,06,00,13,20.20
2015,07,06,00,14,20.10
2015,07,06,00,15,20.10
2015,07,06,00,16,20.10
2015,07,06,00,17,20.10
2015,07,06,00,18,20.00
2015,07,06,00,19,20.00
2015,07,06,00,20,20.00
2015,07,06,00,21,19.90
2015,07,06,00,22,19.90
2015,07,06,00,23,19.90
2015,07,06,00,24,19.90
2015,07,06,00,25,19.90
2015,07,06,00,26,19.80
2015,07,06,00,27,19.80
2015,07,06,00,28,19.80
2015,07,06,00,29,19.80
2015,07,06,00,30,19.70
2015,07,06,00,31,19.70
2015,07,06,00,32,19.60
2015,07,06,00,33,19.60
2015,07,06,00,34,19.50
2015,07,06,00,35,19.50
2015,07,06,00,36,19.40
2015,07,06,00,37,19.40
2015,07,06,00,38,19.40
2015,07,06,00,39,19.40
2015,07,06,00,40,19.40
2015,07,06,00,41,19.40
2015,07,06,00,42,19.40
2015,07,06,00,43,19.40
2015,07,06,00,44,19.40
2015,07,06,00,45,19.40
2015,07,06,00,46,19.40
2015,07,06,00,47,19.40
2015,07,06,00,48,19.40
2015,07,06,00,49,19.40
2015,07,06,00,50,19.40
2015,07,06,00,51,19.40
2015,07,06,00,52,19.40
2015,07,06,00,53,19.40
2015,07,06,00,54,19.40
2015,07,06,00,55,19.40
2015,07,06,00,56,19.40
2015,07,06,00,57,19.40
2015,07,06,00,58,19.40
2015,07,06,00,59,19.40
2015,07,06,01,00,19.40
2015,07,06,01,01,19.40
2015,07,06,01,02,19.40
2015,07,06,01,03,19.40
2015,07,06,01,04,19.40
2015,07,06,01,05,19.40
2015,07,06,01,06,19.40
2015,07,06,01,07,19.40
2015,07,06,01,08,19.40
2015,07,06,01,09,19.40
2015,07,06,01,10,19.40
2015,07,06,01,11,19.40
2015,07,06,01,12,19.40
2015,07,06,01,13,19.40
2015,07,06,01,14,19.40
2015,07,06,01,15,19.40
2015,07,06,01,16,19.40
2015,07,06,01,17,19.40
2015,07,06,01,18,19.40
2015,07,06,01,19,19.40
2015,07,06,01,20,19.40
2015,07,06,01,21,19.40
2015,07,06,01,22,19.40
2015,07,06,01,23,19.40
2015,07,06,01,24,19.40
2015,07,06,01,25,19.40
2015,07,06,01,26,19.40
2015,07,06,01,27,19.40
2015,07,06,01,28,19.40
2015,07,06,01,29,19.40
2015,07,06,01,30,19.40
2015,07,06,01,31,19.40
2015,07,06,01,32,19.40
2015,07,06,01,33,19.40
2015,07,06,01,34,19.40
2015,07,06,01,35,19.40
2015,07,06,01,36,19.40
2015,07,06,01,37,19.40
2015,07,06,01,38,19.40
2015,07,06,01,39,19.40
2015,07,06,01,40,19.40
2015,07,06,01,41,19.30
2015,07,06,01,42,19.30
2015,07,06,01,43,19.30
2015,07,06,01,44,19.30
2015,07,06,01,45,19.30
2015,07,06,01,46,19.30
2015,07,06,01,47,19.20
2015,07,06,01,48,19.20
2015,07,06,01,49,19.20
2015,07,06,01,50,19.20
2015,07,06,01,51,19.10
2015,07,06,01,52,19.10
2015,07,06,01,53,19.10
2015,07,06,01,54,19.00
2015,07,06,01,55,19.00
2015,07,06,01,56,19.00
2015,07,06,01,57,18.90
2015,07,06,01,58,18.90
2015,07,06,01,59,18.90
2015,07,06,02,00,18.90
2015,07,06,02,01,18.80
2015,07,06,02,02,18.80
2015,07,06,02,03,18.80
2015,07,06,02,04,18.80
2015,07,06,02,05,18.80
2015,07,06,02,06,18.80
2015,07,06,02,07,18.70
2015,07,06,02,08,18.70
2015,07,06,02,09,18.70
2015,07,06,02,10,18.70
2015,07,06,02,11,18.70
2015,07,06,02,12,18.70
2015,07,06,02,13,18.70
2015,07,06,02,14,18.60
2015,07,06,02,15,18.60
2015,07,06,02,16,18.60
2015,07,06,02,17,18.60
2015,07,06,02,18,18.60
2015,07,06,02,19,18.60
2015,07,06,02,20,18.60
2015,07,06,02,21,18.60
2015,07,06,02,22,18.50
2015,07,06,02,23,18.50
2015,07,06,02,24,18.40
2015,07,06,02,25,18.40
2015,07,06,02,26,18.40
2015,07,06,02,27,18.40
2015,07,06,02,28,18.30
2015,07,06,02,29,18.30
2015,07,06,02,30,18.30
2015,07,06,02,31,18.30
2015,07,06,02,32,18.30
2015,07,06,02,33,18.30
2015,07,06,02,34,18.30
2015,07,06,02,35,18.30
2015,07,06,02,36,18.20
2015,07,06,02,37,18.20
2015,07,06,02,38,18.20
2015,07,06,02,39,18.20
2015,07,06,02,40,18.20
2015,07,06,02,41,18.10
2015,07,06,02,42,18.10
2015,07,06,02,43,18.10
2015,07,06,02,44,18.10
2015,07,06,02,45,18.10
2015,07,06,02,46,18.10
2015,07,06,02,47,18.10
2015,07,06,02,48,18.00
2015,07,06,02,49,18.00
2015,07,06,02,50,18.00
2015,07,06,02,51,18.00
2015,07,06,02,52,18.00
2015,07,06,02,53,18.00
2015,07,06,02,54,18.00
2015,07,06,02,55,17.90
2015,07,06,02,56,17.90
2015,07,06,02,57,17.90
2015,07,06,02,58,17.90
2015,07,06,02,59,17.90
2015,07,06,03,00,17.90
2015,07,06,03,01,17.90
2015,07,06,03,02,17.90
2015,07,06,03,06,17.80
2015,07,06,03,07,17.80
2015,07,06,03,08,17.80
2015,07,06,03,09,17.80
2015,07,06,03,10,17.80
2015,07,06,03,11,17.70
2015,07,06,03,12,17.70
2015,07,06,03,13,17.60
2015,07,06,03,14,17.60
2015,07,06,03,15,17.60
2015,07,06,03,16,17.60
2015,07,06,03,17,17.50
2015,07,06,03,18,17.50
2015,07,06,03,19,17.50
2015,07,06,03,20,17.40
2015,07,06,03,21,17.40
2015,07,06,03,22,17.40
2015,07,06,03,23,17.40
2015,07,06,03,24,17.40
2015,07,06,03,25,17.40
2015,07,06,03,26,17.30
2015,07,06,03,27,17.30
2015,07,06,03,28,17.30
2015,07,06,03,29,17.30
2015,07,06,03,30,17.30
2015,07,06,03,31,17.20
2015,07,06,03,32,17.20
2015,07,06,03,33,17.20
2015,07,06,03,34,17.20
2015,07,06,03,35,17.10
2015,07,06,03,36,17.10
2015,07,06,03,37,17.10
2015,07,06,03,38,17.10
2015,07,06,03,39,17.10
2015,07,06,03,40,17.00
2015,07,06,03,41,17.00
2015,07,06,03,42,17.00
2015,07,06,03,43,16.90
2015,07,06,03,44,16.90
2015,07,06,03,45,16.90
2015,07,06,03,46,16.90
2015,07,06,03,47,16.90
2015,07,06,03,48,16.80
2015,07,06,03,49,16.80
2015,07,06,03,50,16.80
2015,07,06,03,51,16.80
2015,07,06,03,52,16.80
2015,07,06,03,53,16.80
2015,07,06,03,54,16.80
2015,07,06,03,55,16.80
2015,07,06,03,56,16.80
2015,07,06,03,57,16.80
2015,07,06,03,58,16.70
2015,07,06,03,59,16.70
2015,07,06,04,00,16.70
2015,07,06,04,01,16.70
2015,07,06,04,02,16.80
2015,07,06,04,03,16.80
2015,07,06,04,04,16.80
2015,07,06,04,05,16.80
2015,07,06,04,06,16.80
2015,07,06,04,07,16.80
2015,07,06,04,08,16.80
2015,07,06,04,09,16.70
2015,07,06,04,10,16.70
2015,07,06,04,11,16.70
2015,07,06,04,12,16.70
2015,07,06,04,13,16.70
2015,07,06,04,14,16.70
2015,07,06,04,15,16.60
2015,07,06,04,16,16.60
2015,07,06,04,17,16.60
2015,07,06,04,18,16.60
2015,07,06,04,19,16.60
2015,07,06,04,20,16.50
2015,07,06,04,21,16.50
2015,07,06,04,22,16.50
2015,07,06,04,23,16.50
2015,07,06,04,24,16.40
2015,07,06,04,25,16.40
2015,07,06,04,26,16.40
2015,07,06,04,27,16.30
2015,07,06,04,28,16.30
2015,07,06,04,29,16.30
2015,07,06,04,30,16.20
2015,07,06,04,31,16.20
2015,07,06,04,32,16.20
2015,07,06,04,33,16.20
2015,07,06,04,34,16.20
2015,07,06,04,35,16.10
2015,07,06,04,36,16.10
2015,07,06,04,37,16.10
2015,07,06,04,38,16.10
2015,07,06,04,39,16.10
2015,07,06,04,40,16.10
2015,07,06,04,41,16.10
2015,07,06,04,42,16.00
2015,07,06,04,43,16.00
2015,07,06,04,44,16.00
2015,07,06,04,45,15.90
2015,07,06,04,46,15.90
2015,07,06,04,47,15.90
2015,07,06,04,48,15.80
2015,07,06,04,49,15.80
2015,07,06,04,50,15.80
2015,07,06,04,51,15.80
2015,07,06,04,52,15.80
2015,07,06,04,53,15.80
2015,07,06,04,54,15.80
2015,07,06,04,55,15.80
2015,07,06,04,56,15.70
2015,07,06,04,57,15.70
2015,07,06,04,58,15.70
2015,07,06,04,59,15.70
2015,07,06,05,00,15.70
2015,07,06,05,01,15.70
2015,07,06,05,02,15.70
2015,07,06,05,03,15.60
2015,07,06,05,04,15.60
2015,07,06,05,05,15.60
2015,07,06,05,06,15.60
2015,07,06,05,07,15.50
2015,07,06,05,08,15.50
2015,07,06,05,09,15.50
2015,07,06,05,10,15.50
2015,07,06,05,11,15.40
2015,07,06,05,12,15.40
2015,07,06,05,13,15.40
2015,07,06,05,14,15.40
2015,07,06,05,15,15.40
2015,07,06,05,16,15.40
2015,07,06,05,17,15.40
2015,07,06,05,18,15.40
2015,07,06,05,19,15.30
2015,07,06,05,20,15.30
2015,07,06,05,21,15.30
2015,07,06,05,22,15.30
2015,07,06,05,23,15.30
2015,07,06,05,24,15.30
2015,07,06,05,25,15.30
2015,07,06,05,26,15.30
2015,07,06,05,27,15.30
2015,07,06,05,28,15.30
2015,07,06,05,29,15.30
2015,07,06,05,30,15.30
2015,07,06,05,31,15.30
2015,07,06,05,32,15.30
2015,07,06,05,33,15.30
2015,07,06,05,34,15.30
2015,07,06,05,35,15.30
2015,07,06,05,36,15.30
2015,07,06,05,37,15.30
2015,07,06,05,38,15.30
2015,07,06,05,39,15.30
2015,07,06,05,40,15.20
2015,07,06,05,41,15.20
2015,07,06,05,42,15.20
2015,07,06,05,43,15.20
2015,07,06,05,44,15.20
2015,07,06,05,45,15.20
2015,07,06,05,46,15.20
2015,07,06,05,47,15.20
2015,07,06,05,48,15.20
2015,07,06,05,49,15.20
2015,07,06,05,50,15.20
2015,07,06,05,51,15.20
2015,07,06,05,52,15.20
2015,07,06,05,53,15.20
2015,07,06,05,54,15.20
2015,07,06,05,55,15.20
2015,07,06,05,56,15.20
2015,07,06,05,57,15.20
2015,07,06,05,58,15.20
2015,07,06,05,59,15.10
2015,07,06,06,00,15.10
2015,07,06,06,01,15.20
2015,07,06,06,02,15.20
2015,07,06,06,03,15.20
2015,07,06,06,04,15.20
2015,07,06,06,05,15.20
2015,07,06,06,06,15.20
2015,07,06,06,07,15.20
2015,07,06,06,08,15.20
2015,07,06,06,09,15.20
2015,07,06,06,10,15.20
2015,07,06,06,11,15.30
2015,07,06,06,12,15.30
2015,07,06,06,13,15.40
2015,07,06,06,14,15.40
2015,07,06,06,15,15.40
2015,07,06,06,16,15.50
2015,07,06,06,17,15.50
2015,07,06,06,18,15.60
2015,07,06,06,19,15.60
2015,07,06,06,20,15.60
2015,07,06,06,21,15.60
2015,07,06,06,22,15.70
2015,07,06,06,23,15.70
2015,07,06,06,24,15.70
2015,07,06,06,25,15.80
2015,07,06,06,26,15.80
2015,07,06,06,27,15.80
2015,07,06,06,28,15.80
2015,07,06,06,29,15.80
2015,07,06,06,30,15.80
2015,07,06,06,31,15.80
2015,07,06,06,32,15.80
2015,07,06,06,33,15.90
2015,07,06,06,34,15.90
2015,07,06,06,35,15.90
2015,07,06,06,36,15.90
2015,07,06,06,37,15.90
2015,07,06,06,38,15.90
2015,07,06,06,39,15.90
2015,07,06,06,40,15.90
2015,07,06,06,41,15.90
2015,07,06,06,42,15.90
2015,07,06,06,43,15.90
2015,07,06,06,44,15.90
2015,07,06,06,45,16.00
2015,07,06,06,46,16.00
2015,07,06,06,47,16.00
2015,07,06,06,48,16.00
2015,07,06,06,49,16.00
2015,07,06,06,50,16.00
2015,07,06,06,51,16.00
2015,07,06,06,52,16.00
2015,07,06,06,53,16.00
2015,07,06,06,54,15.90
2015,07,06,06,55,15.90
2015,07,06,06,56,15.90
2015,07,06,06,57,15.90
2015,07,06,06,58,15.90
2015,07,06,06,59,15.90
2015,07,06,07,00,15.90
2015,07,06,07,01,15.90
2015,07,06,07,02,15.90
2015,07,06,07,03,15.90
2015,07,06,07,04,15.80
2015,07,06,07,05,15.80
2015,07,06,07,06,15.80
2015,07,06,07,07,15.70
2015,07,06,07,08,15.70
2015,07,06,07,09,15.70
2015,07,06,07,10,15.70
2015,07,06,07,11,15.60
2015,07,06,07,12,15.60
2015,07,06,07,13,15.60
2015,07,06,07,14,15.60
2015,07,06,07,15,15.60
2015,07,06,07,16,15.50
2015,07,06,07,17,15.50
2015,07,06,07,18,15.50
2015,07,06,07,19,15.50
2015,07,06,07,20,15.50
2015,07,06,07,21,15.50
2015,07,06,07,22,15.50
2015,07,06,07,23,15.50
2015,07,06,07,24,15.40
2015,07,06,07,25,15.40
2015,07,06,07,26,15.40
2015,07,06,07,27,15.50
2015,07,06,07,28,15.40
2015,07,06,07,29,15.50
2015,07,06,07,30,15.50
2015,07,06,07,31,15.50
2015,07,06,07,32,15.50
2015,07,06,07,33,15.50
2015,07,06,07,34,15.50
2015,07,06,07,35,15.50
2015,07,06,07,36,15.60
2015,07,06,07,37,15.60
2015,07,06,07,38,15.60
2015,07,06,07,39,15.60
2015,07,06,07,40,15.60
2015,07,06,07,41,15.60
2015,07,06,07,42,15.60
2015,07,06,07,43,15.70
2015,07,06,07,44,15.70
2015,07,06,07,45,15.70
2015,07,06,07,46,15.70
2015,07,06,07,47,15.70
2015,07,06,07,48,15.80
2015,07,06,07,49,15.80
2015,07,06,07,50,15.80
2015,07,06,07,51,15.80
2015,07,06,07,52,15.80
2015,07,06,07,53,15.90
2015,07,06,07,54,15.90
2015,07,06,07,55,15.90
2015,07,06,07,56,15.90
2015,07,06,07,57,15.90
2015,07,06,07,58,15.90
2015,07,06,07,59,16.00
2015,07,06,08,00,16.00
2015,07,06,08,01,16.00
2015,07,06,08,02,16.00
2015,07,06,08,03,16.10
2015,07,06,08,04,16.10
2015,07,06,08,05,16.10
2015,07,06,08,06,16.10
2015,07,06,08,07,16.10
2015,07,06,08,08,16.10
2015,07,06,08,09,16.10
2015,07,06,08,10,16.20
2015,07,06,08,11,16.20
2015,07,06,08,12,16.20
2015,07,06,08,13,16.20
2015,07,06,08,14,16.30
2015,07,06,08,15,16.30
2015,07,06,08,16,16.30
2015,07,06,08,17,16.30
2015,07,06,08,18,16.40
2015,07,06,08,19,16.40
2015,07,06,08,20,16.40
2015,07,06,08,21,16.40
2015,07,06,08,22,16.50
2015,07,06,08,23,16.50
2015,07,06,08,24,16.50
2015,07,06,08,25,16.60
2015,07,06,08,26,16.60
2015,07,06,08,27,16.70
2015,07,06,08,28,16.70
2015,07,06,08,29,16.70
2015,07,06,08,30,16.80
2015,07,06,08,31,16.80
2015,07,06,08,32,16.80
2015,07,06,08,33,16.80
2015,07,06,08,34,16.80
2015,07,06,08,35,16.80
2015,07,06,08,36,16.80
2015,07,06,08,37,16.80
2015,07,06,08,38,16.80
2015,07,06,08,39,16.80
2015,07,06,08,40,16.80
2015,07,06,08,41,16.80
2015,07,06,08,42,16.80
2015,07,06,08,43,16.80
2015,07,06,08,44,16.80
2015,07,06,08,45,16.80
2015,07,06,08,46,16.80
2015,07,06,08,47,16.80
2015,07,06,08,48,16.90
2015,07,06,08,49,16.90
2015,07,06,08,50,16.90
2015,07,06,08,51,17.00
2015,07,06,08,52,17.00
2015,07,06,08,53,17.10
2015,07,06,08,54,17.10
2015,07,06,08,55,17.10
2015,07,06,08,56,17.20
2015,07,06,08,57,17.20
2015,07,06,08,58,17.20
2015,07,06,08,59,17.30
2015,07,06,09,00,17.30
2015,07,06,09,01,17.30
2015,07,06,09,02,17.40
2015,07,06,09,03,17.40
2015,07,06,09,04,17.40
2015,07,06,09,05,17.50
2015,07,06,09,06,17.50
2015,07,06,09,07,17.60
2015,07,06,09,08,17.60
2015,07,06,09,09,17.70
2015,07,06,09,10,17.70
2015,07,06,09,11,17.70
2015,07,06,09,12,17.80
2015,07,06,09,13,17.80
2015,07,06,09,14,17.80
2015,07,06,09,15,17.80
2015,07,06,09,16,17.90
2015,07,06,09,17,17.90
2015,07,06,09,18,17.90
2015,07,06,09,19,18.00
2015,07,06,09,20,18.10
2015,07,06,09,21,18.10
2015,07,06,09,22,18.20
2015,07,06,09,23,18.20
2015,07,06,09,24,18.20
2015,07,06,09,25,18.20
2015,07,06,09,26,18.10
2015,07,06,09,27,18.10
2015,07,06,09,28,18.10
2015,07,06,09,29,18.10
2015,07,06,09,30,18.10
2015,07,06,09,31,18.00
2015,07,06,09,32,18.00
2015,07,06,09,33,18.00
2015,07,06,09,34,18.00
2015,07,06,09,35,18.00
2015,07,06,09,36,18.00
2015,07,06,09,37,18.10
2015,07,06,09,38,18.10
2015,07,06,09,39,18.10
2015,07,06,09,40,18.10
2015,07,06,09,41,18.20
2015,07,06,09,42,18.20
2015,07,06,09,43,18.20
2015,07,06,09,44,18.30
2015,07,06,09,45,18.30
2015,07,06,09,46,18.30
2015,07,06,09,47,18.40
2015,07,06,09,48,18.40
2015,07,06,09,49,18.40
2015,07,06,09,50,18.50
2015,07,06,09,51,18.60
2015,07,06,09,52,18.60
2015,07,06,09,53,18.70
2015,07,06,09,54,18.70
2015,07,06,09,55,18.80
2015,07,06,09,56,18.90
2015,07,06,09,57,19.00
2015,07,06,09,58,19.10
2015,07,06,09,59,19.10
2015,07,06,10,00,19.20
2015,07,06,10,01,19.30
2015,07,06,10,02,19.30
2015,07,06,10,03,19.30
2015,07,06,10,04,19.40
2015,07,06,10,05,19.40
2015,07,06,10,06,19.40
2015,07,06,10,07,19.50
2015,07,06,10,08,19.60
2015,07,06,10,09,19.60
2015,07,06,10,10,19.70
2015,07,06,10,11,19.70
2015,07,06,10,12,19.80
2015,07,06,10,13,19.80
2015,07,06,10,14,19.90
2015,07,06,10,15,19.90
2015,07,06,10,16,19.90
2015,07,06,10,17,20.00
2015,07,06,10,18,20.00
2015,07,06,10,19,20.10
2015,07,06,10,20,20.10
2015,07,06,10,21,20.10
2015,07,06,10,22,20.20
2015,07,06,10,23,20.20
2015,07,06,10,24,20.20
2015,07,06,10,25,20.20
2015,07,06,10,26,20.20
2015,07,06,10,27,20.30
2015,07,06,10,28,20.30
2015,07,06,10,29,20.40
2015,07,06,10,30,20.40
2015,07,06,10,31,20.50
2015,07,06,10,32,20.50
2015,07,06,10,33,20.50
2015,07,06,10,34,20.50
2015,07,06,10,35,20.50
2015,07,06,10,36,20.60
2015,07,06,10,37,20.60
2015,07,06,10,38,20.60
2015,07,06,10,39,20.60
2015,07,06,10,40,20.60
2015,07,06,10,41,20.60
2015,07,06,10,42,20.60
2015,07,06,10,43,20.60
2015,07,06,10,44,20.50
2015,07,06,10,45,20.50
2015,07,06,10,46,20.40
2015,07,06,10,47,20.40
2015,07,06,10,48,20.40
2015,07,06,10,49,20.40
2015,07,06,10,50,20.40
2015,07,06,10,51,20.40
2015,07,06,10,52,20.40
2015,07,06,10,53,20.50
2015,07,06,10,54,20.50
2015,07,06,10,55,20.60
2015,07,06,10,56,20.60
2015,07,06,10,57,20.70
2015,07,06,10,58,20.70
2015,07,06,10,59,20.70
2015,07,06,11,00,20.70
2015,07,06,11,01,20.60
2015,07,06,11,02,20.60
2015,07,06,11,03,20.50
2015,07,06,11,04,20.50
2015,07,06,11,05,20.50
2015,07,06,11,06,20.50
2015,07,06,11,07,20.50
2015,07,06,11,08,20.60
2015,07,06,11,09,20.60
2015,07,06,11,10,20.60
2015,07,06,11,11,20.60
2015,07,06,11,12,20.60
2015,07,06,11,13,20.50
2015,07,06,11,14,20.50
2015,07,06,11,15,20.50
2015,07,06,11,16,20.50
2015,07,06,11,17,20.50
2015,07,06,11,18,20.50
2015,07,06,11,19,20.50
2015,07,06,11,20,20.40
2015,07,06,11,21,20.40
2015,07,06,11,22,20.40
2015,07,06,11,23,20.40
2015,07,06,11,24,20.40
2015,07,06,11,25,20.40
2015,07,06,11,26,20.40
2015,07,06,11,27,20.40
2015,07,06,11,28,20.40
2015,07,06,11,29,20.40
2015,07,06,11,30,20.40
2015,07,06,11,31,20.50
2015,07,06,11,32,20.50
2015,07,06,11,33,20.50
2015,07,06,11,34,20.50
2015,07,06,11,35,20.50
2015,07,06,11,36,20.50
2015,07,06,11,37,20.50
2015,07,06,11,38,20.50
2015,07,06,11,39,20.50
2015,07,06,11,40,20.50
2015,07,06,11,41,20.50
2015,07,06,11,42,20.50
2015,07,06,11,43,20.60
2015,07,06,11,44,20.60
2015,07,06,11,45,20.70
2015,07,06,11,46,20.70
2015,07,06,11,47,20.80
2015,07,06,11,48,20.80
2015,07,06,11,49,20.80
2015,07,06,11,50,20.80
2015,07,06,11,51,20.90
2015,07,06,11,52,20.90
2015,07,06,11,53,20.90
2015,07,06,11,54,20.90
2015,07,06,11,55,20.90
2015,07,06,11,56,21.00
2015,07,06,11,57,21.10
2015,07,06,11,58,21.10
2015,07,06,11,59,21.20
2015,07,06,12,00,21.20
2015,07,06,12,01,21.20
2015,07,06,12,02,21.30
2015,07,06,12,03,21.20
2015,07,06,12,04,21.20
2015,07,06,12,05,21.20
2015,07,06,12,06,21.30
2015,07,06,12,07,21.30
2015,07,06,12,08,21.30
2015,07,06,12,09,21.30
2015,07,06,12,10,21.30
2015,07,06,12,11,21.30
2015,07,06,12,12,21.30
2015,07,06,12,13,21.40
2015,07,06,12,14,21.40
2015,07,06,12,15,21.50
2015,07,06,12,16,21.50
2015,07,06,12,17,21.50
2015,07,06,12,18,21.50
2015,07,06,12,19,21.50
2015,07,06,12,20,21.50
2015,07,06,12,21,21.50
2015,07,06,12,22,21.40
2015,07,06,12,23,21.40
2015,07,06,12,24,21.50
2015,07,06,12,25,21.50
2015,07,06,12,26,21.40
2015,07,06,12,27,21.40
2015,07,06,12,28,21.50
2015,07,06,12,29,21.50
2015,07,06,12,30,21.50
2015,07,06,12,31,21.50
2015,07,06,12,32,21.50
2015,07,06,12,33,21.40
2015,07,06,12,34,21.50
2015,07,06,12,35,21.50
2015,07,06,12,36,21.50
2015,07,06,12,37,21.60
2015,07,06,12,38,21.60
2015,07,06,12,39,21.60
2015,07,06,12,40,21.60
2015,07,06,12,41,21.60
2015,07,06,12,42,21.60
2015,07,06,12,43,21.70
2015,07,06,12,44,21.70
2015,07,06,12,45,21.60
2015,07,06,12,46,21.60
2015,07,06,12,47,21.70
2015,07,06,12,48,21.70
2015,07,06,12,49,21.70
2015,07,06,12,50,21.80
2015,07,06,12,51,21.80
2015,07,06,12,52,21.80
2015,07,06,12,53,21.80
2015,07,06,12,54,21.70
2015,07,06,12,55,21.60
2015,07,06,12,56,21.60
2015,07,06,12,57,21.60
2015,07,06,12,58,21.60
2015,07,06,12,59,21.50
2015,07,06,13,00,21.40
2015,07,06,13,01,21.40
2015,07,06,13,02,21.40
2015,07,06,13,03,21.40
2015,07,06,13,04,21.40
2015,07,06,13,05,21.40
2015,07,06,13,06,21.50
2015,07,06,13,07,21.50
2015,07,06,13,08,21.60
2015,07,06,13,09,21.70
2015,07,06,13,10,21.70
2015,07,06,13,11,21.60
2015,07,06,13,12,21.60
2015,07,06,13,13,21.60
2015,07,06,13,14,21.70
2015,07,06,13,15,21.70
2015,07,06,13,16,21.70
2015,07,06,13,17,21.70
2015,07,06,13,18,21.70
2015,07,06,13,19,21.70
2015,07,06,13,20,21.70
2015,07,06,13,21,21.70
2015,07,06,13,22,21.60
2015,07,06,13,23,21.60
2015,07,06,13,24,21.70
2015,07,06,13,25,21.70
2015,07,06,13,26,21.70
2015,07,06,13,27,21.70
2015,07,06,13,28,21.80
2015,07,06,13,29,21.80
2015,07,06,13,30,21.70
2015,07,06,13,31,21.70
2015,07,06,13,32,21.60
2015,07,06,13,33,21.60
2015,07,06,13,34,21.60
2015,07,06,13,35,21.60
2015,07,06,13,36,21.50
2015,07,06,13,37,21.50
2015,07,06,13,38,21.50
2015,07,06,13,39,21.50
2015,07,06,13,40,21.50
2015,07,06,13,41,21.60
2015,07,06,13,42,21.70
2015,07,06,13,43,21.70
2015,07,06,13,44,21.80
2015,07,06,13,45,21.80
2015,07,06,13,46,21.80
2015,07,06,13,47,21.80
2015,07,06,13,48,21.90
2015,07,06,13,49,22.00
2015,07,06,13,50,22.10
2015,07,06,13,51,22.10
2015,07,06,13,52,22.00
2015,07,06,13,53,21.90
2015,07,06,13,54,21.80
2015,07,06,13,55,21.80
2015,07,06,13,56,21.70
2015,07,06,13,57,21.60
2015,07,06,13,58,21.60
2015,07,06,13,59,21.50
2015,07,06,14,00,21.50
2015,07,06,14,01,21.60
2015,07,06,14,02,21.70
2015,07,06,14,03,21.80
2015,07,06,14,04,21.90
2015,07,06,14,05,22.00
2015,07,06,14,06,22.00
2015,07,06,14,07,22.00
2015,07,06,14,08,22.00
2015,07,06,14,09,21.90
2015,07,06,14,10,21.90
2015,07,06,14,11,21.90
2015,07,06,14,12,21.90
2015,07,06,14,13,21.90
2015,07,06,14,14,21.90
2015,07,06,14,15,22.00
2015,07,06,14,16,22.00
2015,07,06,14,17,22.00
2015,07,06,14,18,22.10
2015,07,06,14,19,22.10
2015,07,06,14,20,22.10
2015,07,06,14,21,22.20
2015,07,06,14,22,22.20
2015,07,06,14,23,22.30
2015,07,06,14,24,22.30
2015,07,06,14,25,22.30
2015,07,06,14,26,22.30
2015,07,06,14,27,22.40
2015,07,06,14,28,22.50
2015,07,06,14,29,22.50
2015,07,06,14,30,22.50
2015,07,06,14,31,22.50
2015,07,06,14,32,22.50
2015,07,06,14,33,22.50
2015,07,06,14,34,22.50
2015,07,06,14,35,22.50
2015,07,06,14,36,22.60
2015,07,06,14,37,22.60
2015,07,06,14,38,22.60
2015,07,06,14,39,22.60
2015,07,06,14,40,22.60
2015,07,06,14,41,22.60
2015,07,06,14,42,22.60
2015,07,06,14,43,22.70
2015,07,06,14,44,22.60
2015,07,06,14,45,22.60
2015,07,06,14,46,22.70
2015,07,06,14,47,22.70
2015,07,06,14,48,22.80
2015,07,06,14,49,22.90
2015,07,06,14,50,22.90
2015,07,06,14,51,22.90
2015,07,06,14,52,23.00
2015,07,06,14,53,23.00
2015,07,06,14,54,23.10
2015,07,06,14,55,23.10
2015,07,06,14,56,23.10
2015,07,06,14,57,23.20
2015,07,06,14,58,23.10
2015,07,06,14,59,23.10
2015,07,06,15,00,23.00
2015,07,06,15,01,23.00
2015,07,06,15,02,22.90
2015,07,06,15,03,22.90
2015,07,06,15,04,23.00
2015,07,06,15,05,23.00
2015,07,06,15,06,23.00
2015,07,06,15,07,23.00
2015,07,06,15,08,22.90
2015,07,06,15,09,22.80
2015,07,06,15,10,22.80
2015,07,06,15,11,22.70
2015,07,06,15,12,22.70
2015,07,06,15,13,22.60
2015,07,06,15,14,22.50
2015,07,06,15,15,22.40
2015,07,06,15,16,22.30
2015,07,06,15,17,22.30
2015,07,06,15,18,22.20
2015,07,06,15,19,22.20
2015,07,06,15,20,22.20
2015,07,06,15,21,22.20
2015,07,06,15,22,22.20
2015,07,06,15,23,22.30
2015,07,06,15,24,22.30
2015,07,06,15,25,22.30
2015,07,06,15,26,22.30
2015,07,06,15,27,22.40
2015,07,06,15,28,22.40
2015,07,06,15,29,22.40
2015,07,06,15,30,22.30
2015,07,06,15,31,22.30
2015,07,06,15,32,22.30
2015,07,06,15,33,22.30
2015,07,06,15,34,22.30
2015,07,06,15,35,22.40
2015,07,06,15,36,22.40
2015,07,06,15,37,22.50
2015,07,06,15,38,22.50
2015,07,06,15,39,22.50
2015,07,06,15,40,22.50
2015,07,06,15,41,22.50
2015,07,06,15,42,22.50
2015,07,06,15,43,22.50
2015,07,06,15,44,22.50
2015,07,06,15,45,22.60
2015,07,06,15,46,22.60
2015,07,06,15,47,22.60
2015,07,06,15,48,22.60
2015,07,06,15,49,22.70
2015,07,06,15,50,22.70
2015,07,06,15,51,22.80
2015,07,06,15,52,22.70
2015,07,06,15,53,22.70
2015,07,06,15,54,22.70
2015,07,06,15,55,22.70
2015,07,06,15,56,22.70
2015,07,06,15,57,22.70
2015,07,06,15,58,22.80
2015,07,06,15,59,22.80
2015,07,06,16,00,22.90
2015,07,06,16,01,22.90
2015,07,06,16,02,22.90
2015,07,06,16,03,23.00
2015,07,06,16,04,23.00
2015,07,06,16,05,23.10
2015,07,06,16,06,23.10
2015,07,06,16,07,23.20
2015,07,06,16,08,23.20
2015,07,06,16,09,23.20
2015,07,06,16,10,23.30
2015,07,06,16,11,23.30
2015,07,06,16,12,23.30
2015,07,06,16,13,23.30
2015,07,06,16,14,23.40
2015,07,06,16,15,23.40
2015,07,06,16,16,23.30
2015,07,06,16,17,23.30
2015,07,06,16,18,23.30
2015,07,06,16,19,23.30
2015,07,06,16,20,23.30
2015,07,06,16,21,23.30
2015,07,06,16,22,23.20
2015,07,06,16,23,23.20
2015,07,06,16,24,23.30
2015,07,06,16,25,23.30
2015,07,06,16,26,23.40
2015,07,06,16,27,23.50
2015,07,06,16,28,23.50
2015,07,06,16,29,23.60
2015,07,06,16,30,23.60
2015,07,06,16,31,23.60
2015,07,06,16,32,23.60
2015,07,06,16,33,23.60
2015,07,06,16,34,23.60
2015,07,06,16,35,23.60
2015,07,06,16,36,23.60
2015,07,06,16,37,23.60
2015,07,06,16,38,23.60
2015,07,06,16,39,23.60
2015,07,06,16,40,23.60
2015,07,06,16,41,23.60
2015,07,06,16,42,23.50
2015,07,06,16,43,23.50
2015,07,06,16,44,23.50
2015,07,06,16,45,23.50
2015,07,06,16,46,23.60
2015,07,06,16,47,23.60
2015,07,06,16,48,23.60
2015,07,06,16,49,23.60
2015,07,06,16,50,23.60
2015,07,06,16,51,23.60
2015,07,06,16,52,23.60
2015,07,06,16,53,23.60
2015,07,06,16,54,23.60
2015,07,06,16,55,23.70
2015,07,06,16,56,23.70
2015,07,06,16,57,23.70
2015,07,06,16,58,23.70
2015,07,06,16,59,23.80
2015,07,06,17,00,23.80
2015,07,06,17,01,23.80
2015,07,06,17,02,23.90
2015,07,06,17,03,23.90
2015,07,06,17,04,24.00
2015,07,06,17,05,24.00
2015,07,06,17,06,24.10
2015,07,06,17,07,24.10
2015,07,06,17,08,24.10
2015,07,06,17,09,24.20
2015,07,06,17,10,24.20
2015,07,06,17,11,24.30
2015,07,06,17,12,24.30
2015,07,06,17,13,24.20
2015,07,06,17,14,24.20
2015,07,06,17,15,24.30
2015,07,06,17,16,24.30
2015,07,06,17,17,24.30
2015,07,06,17,18,24.30
2015,07,06,17,19,24.30
2015,07,06,17,20,24.20
2015,07,06,17,21,24.20
2015,07,06,17,22,24.10